Flag for Grenada Weather past 2 weeks in Saint George's, Grenada

Now
84 °F

Passing clouds.


Feels Like: 94 °F
Forecast: 76 / 82 °F
Wind: 16 mph from Southeast

Location: Point Salines Airport

Current Time: Jul 29, 2014 at 1:30:10 PM

Latest Report: Jul 29, 2014 at 1:00 PM


Visibility: N/A

Pressure: 29.98 "Hg

Humidity: 79%

Dew point: 77 °F

Location of Saint George'sLocation

Historic Weather in Saint George's — Graph

°F

Saint George's temperature yesterday

Maximum temperature yesterday: 86 °F (at 10:00 AM)
Minimum temperature yesterday: 81 °F (at 12:00 AM)
Average temperature yesterday: 83 °F

Past Weeks' High & Low Weather Summary

 TemperatureHumidityPressure
High86 °F (Jul 14, 1:00 PM)100% (Jul 15, 6:00 AM)30.09 "Hg (Jul 15, 6:00 AM)
Low72 °F (Jul 25, 2:00 AM)66% (Jul 21, 3:00 PM)29.86 "Hg (Jul 25, 4:00 PM)
Average82 °F84%29.99 "Hg
* Reported Jul 14 12:00 Noon — Jul 29 12:00 Noon, Saint George's, Weather by CustomWeather, © 2014

Note: Actual official high and low records may vary slightly from our data, if they occured in-between our weather recording intervals... More about our weather records

Advertising

Saint George's weather history for previous 24 hours

 ConditionsComfort  
Time TempWeatherWind HumidityBarometerVisibility
12:00 PM
Jul 29
84 °FPassing clouds.17 mph79%30.01 "HgN/A
11:00 AM84 °FScattered clouds.18 mph79%30.01 "HgN/A
10:00 AM84 °FScattered clouds.16 mph79%30.01 "HgN/A
9:00 AM84 °FScattered clouds.17 mph74%30.01 "HgN/A
8:00 AM82 °FSprinkles. Partly sunny.14 mph79%30.01 "HgN/A
7:00 AM81 °FScattered clouds.14 mph84%29.98 "HgN/A
6:00 AM81 °FPassing clouds.10 mph84%29.98 "HgN/A
5:00 AM79 °FPassing clouds.6 mph89%29.98 "HgN/A
2:00 AM79 °FPassing clouds.12 mph89%29.98 "HgN/A
1:00 AM79 °FPassing clouds.9 mph89%30.01 "HgN/A
12:00 AM81 °FPassing clouds.16 mph84%30.01 "HgN/A
11:00 PM
Jul 28
81 °FPassing clouds.15 mph84%30.01 "HgN/A
10:00 PM81 °FPassing clouds.17 mph84%30.01 "HgN/A
9:00 PM81 °FPassing clouds.10 mph84%30.01 "HgN/A
8:00 PM81 °FPassing clouds.9 mph79%29.98 "HgN/A
7:00 PM81 °FPassing clouds.8 mph84%29.98 "HgN/A
6:00 PM82 °FPassing clouds.16 mph79%29.95 "HgN/A
5:00 PM84 °FScattered clouds.17 mph74%29.95 "HgN/A
4:00 PM86 °FPassing clouds.17 mph75%29.95 "HgN/A
3:00 PM86 °FPassing clouds.15 mph70%29.98 "HgN/A
2:00 PM86 °FScattered clouds.17 mph75%29.98 "HgN/A
1:00 PM86 °FScattered clouds.17 mph70%30.01 "HgN/A
Weather by CustomWeather, © 2014

See weather overviewHow to use our weather pages